Starlink 2329

operational
NORAD ID: 47873 Int'l Des: 2021-021 Owner: SPXS Country: US Constellation: starlink
LEOCIRCULARSTARLINK_TYPE

About Starlink 2329

Description loading...

Live Position

Loading 3D Globe...

Upcoming Passes

Altitude History

Altitude vs Time

uPlot chart will show altitude changes over time

Two-Line Element Set

1 47873U 21021P 25302.78268609 .00001637 00000-0 12876-3 0 9997
2 47873 53.0528 129.2799 0001337 92.9390 267.1752 15.06403812256596
Epoch: Oct 29, 2025 • Age: 26 hours

Current Status

Altitude 547.0 km
Velocity 7.59 km/s
Sub-Earth Point 16.72°N, 62.48°W
Launch Date Mar 14, 2021
Age 4.6 years
Type internet

Technical Details

Classification Payload
Mass 260.00 kg
Dry Mass 248.00 kg
Total Mass 260.00 kg
Length 0.20 m
Diameter 2.80 m
Span 9.00 m
Shape Box + pan
Manufacturer SPXS
Bus Type Starlink
Phase Status In Orbit
Owner/State SPXS/US

Large Constellations

Loading constellations...